Wetbulb
62.68 62.70 61.27 61.16 61.98 60.25 59.58 57.00 54.69 52.28 52.80 55.86 56.79 58.70 61.07 60.98 61.97 62.06 64.70 64.66 66.07 65.31 64.60 64.08 64.58 65.17 65.97 66.40 66.65 66.62 66.81 67.03 66.86 66.44 66.37 66.56 65.71 65.56
62.29 61.36 61.03 60.53 60.73 60.65 60.48 60.02 56.84 55.42 54.05 56.59 57.71 58.46 59.77 61.66 62.95 63.89 62.84 66.09 65.69 65.20 64.97 64.41 64.52 65.05 65.46 65.80 66.00 66.00 66.01 66.23 66.30 66.32 66.20 66.17 66.27 66.37
63.48 61.98 61.23 61.23 60.49 60.79 60.42 59.76 58.46 57.04 55.52 58.17 58.30 58.59 59.75 60.64 60.59 60.79 61.71 61.31 62.11 64.37 64.70 64.22 63.86 64.37 64.81 65.18 65.03 65.01 65.12 65.39 65.45 65.58 65.94 66.35 66.29 66.58
63.25 62.67 62.29 63.03 61.31 61.52 60.60 60.87 59.55 59.14 57.83 56.24 58.87 60.74 60.28 61.43 60.39 60.53 61.71 63.37 62.44 64.48 63.61 62.96 62.42 62.39 62.60 62.80 62.71 62.56 62.03 62.01 62.46 63.41 64.37 64.94 65.35 65.39
62.41 62.35 62.34 61.62 60.56 61.01 60.83 61.21 60.45 61.03 59.47 58.47 59.15 59.47 60.03 60.28 60.66 59.46 59.47 59.90 61.41 64.72 63.26 62.61 62.21 61.76 61.21 60.21 59.48 58.69 57.28 57.02 58.07 59.18 60.08 61.06 62.05 62.57
64.57 63.25 62.16 62.03 61.38 61.14 60.62 60.88 60.97 60.28 60.44 59.38 60.08 59.14 59.09 60.46 58.94 57.75 57.38 57.49 58.09 61.17 62.49 61.92 61.78 61.81 60.79 59.28 59.18 59.88 57.74 55.62 55.05 55.64 56.41 56.90 57.92 59.17
64.45 64.23 63.41 64.04 64.85 63.53 62.59 61.74 61.33 60.03 59.85 59.81 60.27 58.75 58.12 57.54 55.90 56.46 56.20 56.44 57.02 57.96 57.79 57.12 56.51 54.63 54.49 57.47 58.88 60.63 58.85 58.11 56.79 55.90 55.29 55.01 55.17 55.94
64.10 64.24 64.00 66.05 65.57 64.50 63.97 64.08 62.93 60.83 60.45 58.67 58.87 57.45 56.90 56.08 55.70 56.00 55.10 54.04 53.94 56.70 55.56 55.70 54.16 53.42 53.73 54.45 58.58 59.40 58.83 57.76 56.75 55.96 55.00 54.12 53.87 54.20
65.65 65.20 63.83 65.38 65.10 65.30 63.80 63.32 62.78 62.68 62.36 59.97 58.68 58.74 57.72 58.66 56.58 54.73 54.40 54.50 54.03 55.92 55.01 52.68 52.25 52.53 54.06 55.56 58.11 58.44 57.33 56.48 55.26 54.48 54.09 53.75 53.54 53.50
66.10 65.21 63.26 63.11 64.00 64.79 63.78 62.66 61.25 61.65 62.28 61.76 60.25 61.25 60.45 59.14 57.68 57.42 56.12 54.86 53.84 54.30 53.85 50.71 51.67 51.90 53.25 53.52 56.36 57.19 56.24 55.07 54.29 53.60 53.20 53.23 52.12 51.34
66.41 63.93 63.93 63.70 62.44 60.80 62.65 61.09 60.61 61.37 61.24 59.80 59.18 58.54 57.93 57.69 58.61 58.39 56.82 54.33 50.95 50.92 51.58 50.91 50.88 50.10 48.77 48.69 49.64 53.70 53.59 52.78 52.21 52.53 53.59 53.13 51.89 50.94
62.39 63.48 62.40 64.47 58.51 58.15 63.04 60.81 59.09 60.24 60.04 58.03 56.93 54.65 54.83 54.74 57.04 55.94 54.70 52.18 48.96 48.83 51.42 50.26 47.68 45.41 42.92 44.32 43.59 45.57 45.74 50.24 50.94 51.40 52.72 52.89 51.23 51.37
62.44 62.58 63.41 57.74 54.82 54.05 56.92 61.29 59.88 57.94 57.39 54.18 52.05 51.90 51.78 51.75 51.94 52.28 53.08 52.53 49.99 49.48 52.47 49.80 45.55 44.01 42.48 42.21 43.65 46.58 47.46 50.19 51.62 52.17 51.79 50.66 50.44 51.34
61.72 63.13 62.92 55.74 52.07 51.32 54.20 55.25 54.04 54.91 52.84 51.00 49.73 49.38 49.87 49.68 48.98 49.14 48.10 50.36 52.54 51.39 51.14 48.41 46.19 43.94 41.53 40.85 41.49 46.18 49.62 50.85 50.78 51.82 52.07 51.55 50.90 51.13
63.40 60.40 53.14 49.51 49.51 52.41 54.77 54.21 52.84 51.77 50.04 49.16 48.57 48.98 50.22 48.98 47.09 45.91 46.21 44.57 43.56 43.64 46.33 43.53 44.87 42.95 42.89 42.47 44.18 47.62 47.55 48.95 51.38 50.21 50.91 51.08 51.68 52.03
56.78 54.87 54.67 54.39 53.99 54.16 52.86 52.39 51.59 50.18 49.88 49.27 48.59 48.93 49.02 45.70 44.19 44.05 42.68 41.56 39.61 40.66 43.06 43.18 42.73 42.77 44.10 46.01 46.51 47.41 49.13 46.33 49.27 50.44 50.88 51.18 52.51 52.36
55.57 54.25 54.07 52.92 51.96 51.13 50.63 50.65 50.21 49.77 49.77 49.16 49.26 49.19 46.82 43.42 43.12 42.11 40.95 39.27 38.06 37.89 39.27 41.53 42.32 42.88 44.34 45.48 45.72 46.87 47.26 46.94 48.79 49.53 49.96 48.88 49.73 49.89
54.53 53.49 52.78 52.31 52.05 50.91 50.47 50.15 50.03 51.69 49.27 49.57 49.52 47.28 43.65 42.09 41.77 40.42 39.83 38.04 37.41 37.39 37.57 38.44 38.93 40.92 44.71 45.93 50.65 46.53 45.54 45.77 48.19 48.65 47.65 45.53 45.11 47.15
56.04 53.25 52.69 51.74 51.43 51.41 51.39 51.07 51.19 51.31 50.83 49.92 45.35 43.42 42.76 40.97 40.04 39.79 38.32 37.89 37.26 37.12 38.06 37.39 37.29 39.82 40.18 39.28 43.43 51.72 46.42 45.61 45.60 45.02 44.89 44.31 43.77 44.65
53.96 53.53 53.09 52.71 52.51 52.13 51.07 50.86 48.42 46.40 45.02 43.49 41.12 39.96 38.80 38.45 39.80 38.26 37.66 36.20 36.82 37.37 37.40 37.97 37.35 38.63 40.02 39.72 42.37 45.95 48.17 44.75 43.46 44.01 43.64 44.77 45.21 47.56
53.71 53.63 53.70 52.95 51.52 49.69 48.54 46.82 45.16 42.85 41.75 40.57 39.87 38.59 39.26 40.02 37.99 37.75 37.25 41.00 40.39 36.66 36.82 37.26 38.90 45.68 42.54 44.26 42.33 41.91 44.26 47.24 46.66 44.19 44.18 43.53 42.06 41.47
53.27 53.06 51.23 50.35 48.82 47.38 46.28 45.03 44.12 43.14 41.33 40.03 39.07 38.26 38.59 38.80 38.26 37.28 37.71 37.39 36.86 37.30 37.15 37.98 38.26 41.98 43.41 42.00 40.65 40.52 41.61 42.96 46.43 47.73 48.54 47.56 42.64 38.53
51.98 51.58 50.13 48.64 47.75 47.15 45.92 45.31 46.32 42.77 41.31 40.16 38.58 38.88 38.99 37.73 37.19 37.47 37.47 37.45 37.38 37.40 35.91 35.86 37.17 40.19 42.04 41.27 41.67 39.82 39.95 41.43 42.66 41.97 42.91 47.82 47.13 45.63
MSLP
1018.48 1018.81 1019.10 1019.23 1019.42 1019.65 1019.78 1020.03 1020.54 1021.36 1021.09 1020.38 1020.22 1019.30 1019.24 1019.35 1019.24 1019.37 1019.43 1019.45 1019.55 1019.70 1019.75 1019.80 1019.84 1019.83 1019.77 1019.73 1019.77 1019.75 1019.77 1019.77 1019.69 1019.67 1019.70 1019.71 1019.68 1019.68
1018.21 1018.54 1018.85 1018.99 1019.16 1019.44 1019.65 1019.76 1020.06 1020.42 1020.78 1020.25 1020.03 1019.65 1019.20 1019.03 1019.11 1019.18 1019.14 1019.12 1019.17 1019.24 1019.35 1019.38 1019.36 1019.34 1019.29 1019.17 1019.09 1019.12 1019.13 1019.18 1019.22 1019.20 1019.11 1019.17 1019.22 1019.21
1017.82 1018.17 1018.52 1018.76 1018.95 1019.12 1019.47 1019.73 1019.90 1020.10 1020.39 1019.93 1019.88 1019.39 1019.21 1019.13 1018.98 1018.95 1018.94 1018.99 1019.06 1018.92 1018.83 1018.90 1018.92 1018.89 1018.84 1018.79 1018.73 1018.70 1018.61 1018.63 1018.62 1018.68 1018.64 1018.68 1018.64 1018.65
1017.22 1017.60 1017.86 1018.22 1018.62 1018.84 1019.05 1019.44 1019.59 1019.56 1019.94 1020.12 1019.72 1019.41 1019.14 1018.90 1018.93 1019.01 1018.73 1018.67 1018.67 1018.44 1018.33 1018.34 1018.35 1018.46 1018.49 1018.41 1018.26 1018.30 1018.27 1018.18 1018.17 1018.18 1018.22 1018.16 1018.07 1018.07
1016.42 1016.85 1017.18 1017.63 1018.09 1018.41 1018.53 1018.91 1019.24 1019.38 1019.44 1019.70 1019.52 1019.30 1019.26 1019.23 1019.06 1018.79 1018.81 1018.52 1018.33 1018.20 1018.11 1018.10 1018.13 1018.11 1018.06 1018.09 1018.02 1017.94 1017.88 1017.79 1017.70 1017.64 1017.72 1017.71 1017.64 1017.53
1016.15 1016.21 1016.46 1016.82 1017.27 1017.70 1018.07 1018.40 1018.74 1019.11 1019.29 1019.41 1019.51 1019.38 1019.40 1019.16 1019.17 1019.33 1019.04 1018.65 1018.47 1018.16 1017.91 1017.88 1018.01 1018.01 1017.98 1017.91 1017.70 1017.49 1017.40 1017.42 1017.41 1017.41 1017.31 1017.14 1017.05 1016.93
1015.74 1015.91 1015.97 1016.12 1016.28 1016.53 1017.17 1017.73 1018.25 1018.66 1018.97 1019.14 1019.33 1019.44 1019.39 1019.25 1019.37 1019.30 1019.30 1019.03 1018.64 1018.43 1018.15 1017.97 1017.95 1017.96 1017.73 1017.54 1017.42 1017.29 1017.22 1017.07 1016.94 1016.88 1016.78 1016.65 1016.51 1016.32
1015.21 1015.51 1015.55 1015.70 1015.80 1016.18 1016.38 1016.74 1017.17 1017.77 1018.26 1018.65 1018.93 1018.95 1018.86 1018.80 1018.88 1018.92 1019.02 1019.27 1019.13 1018.21 1018.34 1018.18 1017.96 1017.83 1017.36 1017.15 1016.88 1016.76 1016.62 1016.53 1016.47 1016.44 1016.36 1016.21 1016.06 1015.84
1014.55 1014.85 1015.14 1015.27 1015.49 1015.80 1016.06 1016.49 1016.75 1017.01 1017.15 1017.57 1017.93 1018.11 1018.05 1017.86 1018.17 1018.49 1018.76 1018.93 1018.85 1018.30 1018.43 1018.45 1018.02 1017.71 1016.98 1016.75 1016.38 1016.15 1015.96 1015.90 1015.88 1015.72 1015.59 1015.45 1015.37 1015.31
1013.73 1014.03 1014.48 1014.53 1014.94 1015.22 1015.73 1016.17 1016.45 1016.58 1016.64 1016.84 1017.05 1017.08 1017.27 1017.41 1017.86 1017.81 1017.97 1018.26 1018.34 1018.14 1018.28 1018.46 1017.64 1017.46 1016.76 1016.50 1016.04 1015.74 1015.50 1015.41 1015.18 1015.06 1014.93 1014.74 1014.60 1014.55
1013.20 1013.33 1013.49 1013.97 1014.25 1014.73 1015.57 1015.95 1016.17 1016.09 1016.01 1016.28 1016.48 1016.57 1016.72 1016.91 1017.11 1017.49 1017.78 1018.18 1018.32 1018.11 1017.84 1017.95 1017.56 1017.39 1016.82 1016.23 1015.62 1015.42 1015.22 1015.03 1014.92 1014.66 1014.38 1014.18 1014.07 1013.92
1012.41 1012.60 1012.95 1013.32 1013.82 1014.36 1014.99 1015.44 1015.91 1015.93 1016.16 1016.46 1016.60 1016.67 1016.86 1016.83 1016.82 1017.07 1017.34 1017.96 1018.36 1018.24 1017.52 1017.78 1017.64 1017.59 1017.16 1016.23 1015.90 1015.31 1014.97 1014.62 1014.43 1014.15 1013.81 1013.52 1013.26 1013.29
1011.88 1012.19 1012.48 1012.85 1013.34 1013.82 1014.41 1014.84 1015.28 1015.60 1015.95 1016.39 1016.72 1016.86 1016.87 1016.92 1016.82 1016.67 1016.95 1017.32 1017.65 1017.70 1016.98 1017.28 1017.45 1017.48 1017.49 1016.97 1016.08 1015.05 1014.53 1014.08 1013.88 1013.57 1013.12 1012.92 1012.83 1012.79
1011.36 1011.90 1012.22 1012.59 1013.10 1013.64 1014.14 1014.51 1014.98 1015.33 1016.01 1016.72 1017.07 1017.19 1017.31 1016.97 1017.02 1016.75 1016.75 1016.82 1016.80 1016.85 1016.54 1016.97 1017.25 1017.20 1017.22 1017.04 1016.17 1014.64 1014.07 1013.60 1013.35 1013.12 1012.80 1012.45 1012.16 1011.80
1010.99 1011.52 1012.11 1012.58 1013.13 1013.48 1014.09 1014.46 1014.84 1015.54 1016.20 1016.66 1017.02 1017.08 1016.94 1016.78 1016.80 1016.79 1016.58 1016.64 1016.62 1016.43 1016.17 1016.30 1016.46 1016.43 1016.61 1016.22 1015.61 1014.65 1014.22 1013.42 1012.85 1012.75 1012.40 1012.13 1011.70 1011.08
1011.26 1012.23 1012.35 1012.70 1013.45 1013.70 1014.12 1014.67 1015.06 1015.45 1016.01 1016.45 1016.68 1016.72 1016.77 1016.82 1016.79 1016.86 1016.94 1016.98 1017.10 1016.61 1015.70 1015.62 1015.76 1015.96 1015.75 1015.01 1014.74 1014.18 1013.60 1013.66 1012.62 1012.38 1012.01 1011.45 1010.54 1009.89
1011.45 1012.46 1012.87 1013.49 1013.92 1014.10 1014.33 1014.80 1015.17 1015.51 1015.90 1016.01 1016.27 1016.57 1016.74 1016.95 1016.83 1016.78 1016.97 1017.19 1017.31 1016.99 1016.41 1015.23 1014.77 1014.81 1014.53 1014.39 1014.15 1013.39 1013.17 1013.00 1012.50 1012.08 1011.47 1010.57 1009.63 1008.97
1011.12 1012.22 1012.41 1012.92 1013.36 1013.97 1014.33 1014.74 1015.06 1015.16 1015.46 1015.78 1015.96 1016.09 1016.65 1016.90 1016.88 1016.80 1017.00 1017.21 1017.21 1016.85 1016.52 1015.92 1015.38 1014.85 1014.10 1013.30 1013.01 1012.79 1012.69 1012.70 1012.13 1011.65 1011.17 1010.46 1009.01 1008.22
1010.82 1011.85 1011.95 1012.35 1012.97 1013.46 1013.62 1014.35 1014.61 1014.61 1014.83 1015.22 1015.68 1015.99 1016.29 1016.70 1016.97 1016.89 1017.02 1017.03 1016.81 1016.63 1016.16 1015.72 1015.43 1015.31 1014.82 1014.03 1012.66 1012.12 1012.58 1012.38 1011.96 1011.32 1010.67 1009.90 1008.57 1007.41
1010.63 1011.34 1011.63 1011.95 1012.76 1012.94 1013.18 1013.87 1014.26 1014.50 1014.88 1015.21 1015.40 1015.85 1016.38 1016.61 1016.78 1016.84 1016.80 1016.84 1016.75 1016.51 1016.10 1015.37 1014.97 1014.68 1014.59 1014.10 1013.43 1012.35 1011.92 1011.88 1011.67 1010.95 1009.98 1009.04 1007.91 1006.50
1010.27 1010.78 1011.36 1011.88 1012.06 1012.27 1012.98 1013.58 1013.73 1014.31 1014.66 1015.04 1015.26 1015.57 1016.00 1016.34 1016.48 1016.56 1016.53 1016.52 1016.56 1016.39 1016.14 1015.35 1014.19 1013.59 1013.43 1013.40 1013.29 1012.67 1011.71 1011.21 1011.10 1010.71 1009.64 1008.50 1007.03 1005.42
1009.65 1010.16 1010.85 1011.27 1011.35 1012.03 1012.76 1013.40 1013.76 1014.19 1014.55 1014.65 1014.83 1015.18 1015.63 1015.99 1016.12 1016.22 1016.30 1016.30 1016.16 1016.04 1015.69 1014.82 1013.78 1013.45 1013.38 1013.38 1013.29 1012.91 1012.04 1011.04 1010.28 1009.85 1009.21 1008.68 1007.62 1005.61
1009.36 1009.51 1009.97 1010.70 1011.00 1011.39 1012.22 1012.85 1013.13 1013.81 1014.21 1014.38 1014.53 1014.72 1015.07 1015.65 1015.65 1015.83 1015.92 1015.78 1015.78 1015.56 1015.26 1014.66 1013.95 1013.63 1013.46 1013.28 1013.11 1012.79 1012.21 1011.27 1010.38 1009.46 1008.46 1007.81 1007.16 1006.16
Wind_Speed
5 5 3 2 2 2 2 3 5 2 3 3 2 3 2 4 7 5 6 8 11 11 11 11 12 13 13 13 13 13 13 13 13 12 12 12 12 12
4 6 4 2 3 2 2 3 2 4 2 4 3 2 3 2 3 5 6 9 10 11 11 13 13 14 15 15 14 14 15 14 14 15 14 14 13 13
5 6 7 4 4 4 3 2 3 3 3 2 3 2 2 3 4 4 5 4 4 8 9 10 11 12 14 14 12 12 14 15 16 17 15 13 12 13
7 7 7 4 5 5 4 5 3 4 4 5 3 3 5 2 3 4 2 2 3 6 7 6 7 7 9 11 12 13 13 14 13 13 14 14 14 13
9 8 7 7 5 4 4 5 3 2 3 3 4 1 2 2 2 2 2 3 3 5 5 7 8 6 6 6 6 7 9 10 10 10 12 12 12 13
8 9 8 9 8 7 6 6 5 4 3 3 3 3 1 1 0 2 4 1 2 3 4 4 3 3 6 8 10 9 8 7 8 8 9 9 10 11
6 7 7 10 13 11 5 6 6 5 4 4 2 1 2 2 2 1 2 3 3 3 3 2 1 3 4 5 7 9 8 8 8 8 8 9 10 11
8 5 7 11 10 12 12 10 10 6 5 4 2 4 4 4 3 3 3 1 4 2 2 4 1 5 4 4 8 8 8 9 9 9 11 11 11 11
11 9 8 6 7 6 7 8 7 7 6 6 6 5 4 6 3 2 4 4 4 3 2 4 2 4 4 5 11 11 11 10 9 11 9 10 11 11
11 12 9 7 7 7 5 5 5 5 6 5 6 4 5 4 5 3 2 2 2 3 4 4 2 4 3 5 11 13 13 12 13 12 12 12 12 11
11 8 9 7 8 8 6 6 5 4 2 4 5 6 5 5 4 1 3 2 2 3 3 3 2 3 2 4 5 10 12 12 12 14 14 14 13 13
5 6 11 9 12 13 8 7 6 5 4 1 1 3 4 4 1 5 3 3 2 3 3 3 2 1 5 3 3 5 5 11 14 15 16 15 14 5
5 4 4 9 10 12 9 6 6 6 5 3 1 3 3 4 1 1 4 4 3 4 3 3 2 1 2 4 4 5 4 6 5 6 11 12 13 10
5 4 5 10 10 9 9 8 9 7 4 3 2 2 1 1 3 2 2 3 4 6 4 5 3 4 3 3 5 4 4 5 4 6 4 7 11 14
4 6 9 9 9 7 6 8 9 5 4 3 3 3 3 2 2 3 3 2 4 4 4 3 5 3 4 5 4 4 3 4 6 4 5 6 7 8
10 6 6 7 5 6 5 5 4 4 4 3 3 2 1 1 1 1 1 2 2 4 7 4 6 5 3 5 3 5 6 3 4 8 7 8 10 9
9 4 3 3 3 3 3 4 4 3 4 3 3 3 1 1 2 1 0 1 1 3 5 6 4 6 6 6 3 5 4 4 5 7 9 11 11 11
5 4 4 4 5 5 5 4 4 6 4 4 3 3 3 2 2 1 0 2 2 3 3 3 3 5 5 5 12 6 2 3 6 8 8 9 13 11
4 3 4 5 5 5 5 4 4 5 5 4 4 4 3 2 2 1 2 2 2 2 4 3 2 1 3 5 5 6 4 3 4 8 7 10 14 14
3 4 5 5 5 5 4 5 4 4 3 4 4 3 4 3 2 3 2 2 3 3 4 4 2 3 3 4 3 4 5 3 3 8 10 11 14 23
4 5 4 5 5 4 4 4 5 5 4 5 3 3 3 3 3 3 3 4 4 2 4 5 5 7 4 2 3 4 5 7 5 7 11 11 13 14
5 5 5 5 5 6 5 5 5 4 4 4 4 4 4 4 3 2 2 2 2 3 4 5 6 3 1 1 3 5 5 4 9 10 14 12 12 14
6 6 5 5 5 6 6 6 6 5 5 5 5 4 5 4 3 3 3 2 3 4 2 5 4 2 2 2 3 4 6 6 7 9 8 13 21 25
Wind_Direction
200 186 181 189 172 188 151 153 154 183 273 276 268 290 232 213 228 221 229 238 237 237 241 245 243 246 250 248 248 251 253 257 257 258 263 269 273 276
190 180 191 193 185 184 211 193 176 158 204 203 260 266 276 256 238 219 236 247 242 233 236 244 245 247 249 248 247 247 251 252 248 248 245 247 255 262
188 186 204 182 195 188 184 185 177 152 186 281 221 249 269 242 280 298 295 293 276 254 252 259 257 258 258 259 260 260 259 258 258 259 257 252 250 252
197 193 205 183 214 212 178 213 200 178 151 229 249 249 226 230 239 278 296 275 272 274 277 264 253 268 260 254 253 260 267 273 269 266 266 262 260 264
195 195 196 191 208 196 197 197 203 202 185 187 241 248 318 357 316 334 296 287 275 276 293 302 318 331 323 333 311 268 254 258 262 261 258 259 262 267
211 208 189 195 196 207 200 203 203 201 199 212 248 273 213 234 273 274 310 295 298 307 297 277 311 319 318 305 300 294 285 256 257 258 267 275 279 276
221 217 211 210 200 200 175 201 188 198 200 215 226 220 237 249 219 229 268 313 296 244 291 302 303 306 300 297 291 285 279 281 281 276 267 266 266 272
208 222 229 222 214 214 204 193 189 192 206 180 204 214 240 214 193 197 201 220 298 233 205 279 108 292 280 276 269 273 268 265 261 259 257 261 265 270
213 210 231 220 200 209 210 227 226 214 186 176 205 208 224 205 181 212 209 206 226 266 168 275 221 257 273 281 284 283 277 274 276 277 269 258 259 260
208 216 203 203 199 190 187 207 227 216 209 185 210 230 227 216 203 197 203 228 296 260 170 227 229 248 275 267 270 266 280 282 285 289 286 284 287 280
220 186 189 195 185 164 179 213 237 257 199 212 235 256 272 268 223 217 269 180 276 271 230 190 270 269 263 263 269 279 273 272 276 282 279 273 267 276
184 186 188 191 178 177 189 185 211 220 161 160 324 6 4 317 221 192 164 218 196 288 241 180 270 233 313 272 293 270 270 268 265 266 268 270 273 274
183 176 187 179 178 186 190 172 205 150 154 139 44 350 342 329 341 129 186 176 186 233 240 163 223 260 214 292 283 267 247 270 261 270 266 263 259 244
176 173 172 173 175 179 179 174 151 120 115 109 80 355 302 261 294 318 263 233 229 223 264 166 231 190 201 260 253 287 284 277 259 273 271 271 272 270
155 161 136 138 141 134 152 152 137 126 134 140 185 213 212 237 294 314 323 320 289 264 256 215 201 230 203 230 257 274 307 276 287 272 284 274 277 277
105 118 126 111 107 128 117 132 139 151 160 170 194 218 291 319 271 199 296 346 346 305 304 217 216 198 262 239 215 274 284 278 297 301 287 282 281 276
114 112 117 120 142 134 107 157 167 158 176 184 183 194 233 230 249 160 204 317 234 280 299 310 303 230 232 227 277 256 272 286 283 292 303 297 291 289
111 157 159 168 163 171 178 175 187 194 194 193 195 168 204 220 245 305 142 218 254 283 276 271 311 334 340 290 207 263 269 251 296 294 295 294 296 299
133 172 168 163 175 188 175 183 200 194 171 178 175 184 180 205 217 252 248 252 290 276 276 247 280 198 300 293 287 237 232 263 272 303 301 301 299 301
123 167 175 161 184 189 178 179 166 145 147 159 153 169 185 188 197 233 248 268 282 288 295 299 247 228 211 242 289 272 214 267 295 306 304 302 294 298
165 163 165 176 188 171 168 166 150 155 169 165 174 165 175 172 219 236 273 264 252 264 294 287 265 285 254 257 307 297 290 280 263 294 302 307 312 311
164 165 180 182 163 158 153 159 156 164 180 183 184 184 197 192 196 232 252 273 293 263 258 268 301 335 9 186 274 277 294 292 307 287 301 313 328 318
176 176 173 170 163 152 157 168 167 175 194 196 186 196 174 183 190 218 233 251 267 297 274 302 311 328 266 246 266 284 292 303 315 316 310 319 331 329